Weather History for Haleyville, AL

Change the Weather History Date:

Tuesday, November 20, 2012

  Actual Average (KJFX) Record (KJFX)
Temperature  
Mean Temperature 51 °F -  
Max Temperature 66 °F 64 °F 79 °F (1985)
Min Temperature 36 °F 38 °F 19 °F (1969)
Degree Days  
Heating Degree Days 14    
Growing Degree Days 1 (Base 50)    
Moisture  
Dew Point 41 °F    
Average Humidity 81    
Maximum Humidity 100    
Minimum Humidity 39    
Precipitation  
Precipitation 0.00 in - - ()
Sea Level Pressure  
Sea Level Pressure 30.21 in    
Wind  
Wind Speed 0 mph (WSW)    
Max Wind Speed 8 mph    
Max Gust Speed -    
Visibility 6 miles    
Events      
Averages and records for this station are not official NWS values.
T = Trace of Precipitation, MM = Missing Value Source: NWS Daily Summary

Daily Weather History Graph

Daily Weather History Graph

Search for Another Location

Airport:

Trip Planner

Search our weather history database for the weather conditions in past years. The results will help you decide how hot, cold, wet, or windy it might be!

Date:

Astronomy

Nov. 20, 2012 Rise Set
Actual Time 6:28 AM CST 4:43 PM CST
Civil Twilight 6:01 AM CST 5:10 PM CST
Nautical Twilight 5:31 AM CST 5:40 PM CST
Astronomical Twilight 5:01 AM CST 6:10 PM CST
Moon 12:11 PM CST No Moon Set
Length of Visible Light 11h 08m
Length of Day
10h 14m
First Quarter, 51% of the Moon is Illuminated
Nov 20
First Quarter
Nov 28
Full
Dec 6
Last Quarter
Dec 13
New
Dec 19
First Quarter

Hourly Weather History & Observations

Time (CST) Temp. Dew Point Humidity Pressure Visibility Wind Dir Wind Speed Gust Speed Precip Events Conditions
12:11 AM 39.2 °F 39.2 °F 100% 30.23 in 2.5 mi Calm Calm - N/A   Clear
12:36 AM 39.2 °F 39.2 °F 100% 30.21 in 3.0 mi Calm Calm - N/A   Clear
12:48 AM 39.2 °F 39.2 °F 100% 30.22 in 2.0 mi Calm Calm - N/A   Clear
12:56 AM 39.9 °F 39.9 °F 100% 30.25 in 1.5 mi Calm Calm - N/A   Clear
1:11 AM 39.2 °F 39.2 °F 100% 30.22 in 2.5 mi Calm Calm - N/A   Partly Cloudy
1:56 AM 39.9 °F 38.8 °F 96% 30.24 in 3.0 mi Calm Calm - N/A   Scattered Clouds
2:01 AM 39.2 °F 39.2 °F 100% 30.21 in 1.8 mi Calm Calm - N/A   Mostly Cloudy
2:09 AM 39.2 °F 39.2 °F 100% 30.20 in 1.2 mi Calm Calm - N/A   Mostly Cloudy
2:13 AM 39.2 °F 39.2 °F 100% 30.20 in 2.0 mi Calm Calm - N/A   Scattered Clouds
2:56 AM 39.2 °F 39.2 °F 100% 30.20 in 2.5 mi Calm Calm - N/A   Scattered Clouds
3:21 AM 39.2 °F 39.2 °F 100% 30.20 in 1.5 mi Calm Calm - N/A   Clear
3:35 AM 39.2 °F 39.2 °F 100% 30.20 in 3.0 mi Calm Calm - N/A   Clear
3:56 AM 38.8 °F 37.9 °F 97% 30.24 in 6.0 mi Calm Calm - N/A   Clear
4:56 AM 36.9 °F 36.9 °F 100% 30.23 in 6.0 mi Calm Calm - N/A   Clear
5:56 AM 38.8 °F 38.8 °F 100% 30.25 in 8.0 mi Calm Calm - N/A   Mostly Cloudy
6:56 AM 41.9 °F 41.9 °F 100% 30.26 in 7.0 mi Calm Calm - N/A   Overcast
7:56 AM 45.9 °F 45.0 °F 97% 30.26 in 9.0 mi Calm Calm - N/A   Overcast
8:56 AM 55.9 °F 45.0 °F 67% 30.26 in 8.0 mi Calm Calm - N/A   Clear
9:30 AM 59.0 °F 42.8 °F 55% 30.23 in 2.0 mi Calm Calm - N/A   Haze
9:56 AM 61.9 °F 43.9 °F 52% 30.25 in 5.0 mi Calm Calm - N/A   Haze
10:09 AM 62.6 °F 44.6 °F 52% 30.21 in 2.0 mi Variable 3.5 mph - N/A   Haze
10:22 AM 62.6 °F 42.8 °F 48% 30.21 in 5.0 mi Calm Calm - N/A   Haze
10:56 AM 63.0 °F 43.0 °F 48% 30.23 in 3.0 mi Calm Calm - N/A   Haze
11:56 AM 66.9 °F 43.0 °F 42% 30.20 in 10.0 mi WSW 8.1 mph - N/A   Scattered Clouds
12:56 PM 66.9 °F 41.0 °F 39% 30.18 in 10.0 mi Variable 5.8 mph - N/A   Partly Cloudy
2:56 PM 66.9 °F 43.0 °F 42% 30.16 in 10.0 mi WSW 5.8 mph - N/A   Partly Cloudy
3:56 PM 64.9 °F 43.0 °F 45% 30.16 in 10.0 mi Calm Calm - N/A   Scattered Clouds
4:56 PM 57.9 °F 43.9 °F 60% 30.16 in 10.0 mi Calm Calm - N/A   Clear
5:56 PM 52.9 °F 43.0 °F 69% 30.17 in 10.0 mi Calm Calm - N/A   Clear
6:56 PM 50.9 °F 43.9 °F 77% 30.18 in 10.0 mi Calm Calm - N/A   Clear
7:56 PM 46.9 °F 41.9 °F 83% 30.19 in 10.0 mi Calm Calm - N/A   Clear
8:56 PM 45.0 °F 41.9 °F 89% 30.20 in 10.0 mi Calm Calm - N/A   Mostly Cloudy
9:56 PM 45.0 °F 41.9 °F 89% 30.19 in 10.0 mi Calm Calm - N/A   Clear
10:56 PM 43.9 °F 41.0 °F 90% 30.19 in 10.0 mi Calm Calm - N/A   Clear
11:56 PM 41.9 °F 39.9 °F 93% 30.19 in 10.0 mi Calm Calm - N/A   Clear